Starlink 5067

operational
NORAD ID: 55653 Int'l Des: 2023-021 Owner: SPXS Country: US Constellation: starlink
LEOCIRCULAR

Über Starlink 5067

Beschreibung wird geladen...

Live-Position

3D-Globus wird geladen...

Nächste Überflüge

Höhenverlauf

Altitude vs Time

uPlot chart will show altitude changes over time

Zweizeiliger Elementsatz

1 55653U 23021AB 25306.29918777 -.00000076 00000-0 14118-5 0 9992
2 55653 69.9970 145.4874 0002905 268.6387 91.4439 14.98327382149714
Epoch: 2. Nov. 2025 • Age: 22 hours

Aktueller Status

Höhe 581.3 km
Geschwindigkeit 7.57 km/s
Subsatellitenpunkt -28.56°S, 6.9°E
Startdatum 17. Feb. 2023
Alter 2.7 years
Typ internet

Technische Details

Klassifizierung Payload
Masse 305.00 kg
Trockenmasse 290.00 kg
Gesamtmasse 305.00 kg
Länge 0.20 m
Durchmesser 2.80 m
Spannweite 9.00 m
Form Box + pan
Hersteller SPXS
Bus-Typ Starlink
Phasenstatus In Orbit
Besitzer/Staat SPXS/US

Große Konstellationen

Loading constellations...